Data supplied by UK-AIR on 2/5/2024
All Data GMT hour ending 
Status: R =Ratified P=Provisional,P*=As supplied
,,Glasgow High Street,,,,,,,,,,,,,,,,,,,,,,,
Date,time,"PM<sub>10</sub> particulate matter (Hourly measured)",status,unit,"Nitric oxide",status,unit,"Nitrogen dioxide",status,unit,"Nitrogen oxides as nitrogen dioxide",status,unit,"PM<sub>2.5</sub> particulate matter (Hourly measured)",status,unit,"Black Carbon (880nm)",status,unit,"Blue Particulate matter (470nm)",status,unit,"Infra Red Particulate matter (950nm)",status,unit,"Red Particulate matter (660nm)",status,unit,"UV Particulate Matter (UV-BC)",status,unit,"UV Particulate Matter (370nm)",status,unit,"Yellow Particulate matter (590nm)",status,unit
 
01-01-2024,01:00,20.925,P,ugm-3 (FIDAS),13.30162,P,ugm-3,49.83146,P,ugm-3,70.22700,P,ugm-3,17.736,P,ugm-3 (Ref.eq),2.60,P,ugm-3,3.50,P,ugm-3,2.80,P,ugm-3,2.70,P,ugm-3,,,,4.10,P,ugm-3,2.90,P,ugm-3
01-01-2024,02:00,24.125,P,ugm-3 (FIDAS),19.08494,P,ugm-3,48.74389,P,ugm-3,78.00705,P,ugm-3,20.802,P,ugm-3 (Ref.eq),2.80,P,ugm-3,3.80,P,ugm-3,3.00,P,ugm-3,3.00,P,ugm-3,,,,4.70,P,ugm-3,3.20,P,ugm-3
01-01-2024,03:00,20.600,P,ugm-3 (FIDAS),14.94764,P,ugm-3,43.69298,P,ugm-3,66.61238,P,ugm-3,17.453,P,ugm-3 (Ref.eq),2.40,P,ugm-3,3.20,P,ugm-3,2.60,P,ugm-3,2.60,P,ugm-3,,,,3.80,P,ugm-3,2.70,P,ugm-3
01-01-2024,04:00,12.475,P,ugm-3 (FIDAS),9.37564,P,ugm-3,29.10299,P,ugm-3,43.47878,P,ugm-3,10.047,P,ugm-3 (Ref.eq),1.60,P,ugm-3,2.00,P,ugm-3,1.80,P,ugm-3,1.70,P,ugm-3,,,,2.20,P,ugm-3,1.80,P,ugm-3
01-01-2024,05:00,5.275,P,ugm-3 (FIDAS),4.03720,P,ugm-3,19.06045,P,ugm-3,25.25074,P,ugm-3,3.585,P,ugm-3 (Ref.eq),0.50,P,ugm-3,0.60,P,ugm-3,0.50,P,ugm-3,0.50,P,ugm-3,,,,0.60,P,ugm-3,0.50,P,ugm-3
01-01-2024,06:00,1.950,P,ugm-3 (FIDAS),3.00288,P,ugm-3,13.36551,P,ugm-3,17.96985,P,ugm-3,0.920,P,ugm-3 (Ref.eq),0.10,P,ugm-3,0.20,P,ugm-3,0.20,P,ugm-3,0.10,P,ugm-3,,,,0.10,P,ugm-3,0.20,P,ugm-3
01-01-2024,07:00,1.575,P,ugm-3 (FIDAS),2.10201,P,ugm-3,10.71908,P,ugm-3,13.94213,P,ugm-3,0.731,P,ugm-3 (Ref.eq),0.20,P,ugm-3,0.20,P,ugm-3,0.20,P,ugm-3,0.20,P,ugm-3,,,,0.20,P,ugm-3,0.20,P,ugm-3
01-01-2024,08:00,2.075,P,ugm-3 (FIDAS),2.23547,P,ugm-3,17.89861,P,ugm-3,21.32629,P,ugm-3,0.991,P,ugm-3 (Ref.eq),0.30,P,ugm-3,0.30,P,ugm-3,0.30,P,ugm-3,0.30,P,ugm-3,,,,0.30,P,ugm-3,0.30,P,ugm-3
01-01-2024,09:00,2.450,P,ugm-3 (FIDAS),2.40230,P,ugm-3,20.89598,P,ugm-3,24.57945,P,ugm-3,1.274,P,ugm-3 (Ref.eq),0.30,P,ugm-3,0.40,P,ugm-3,0.40,P,ugm-3,0.30,P,ugm-3,,,,0.40,P,ugm-3,0.40,P,ugm-3
01-01-2024,10:00,4.325,P,ugm-3 (FIDAS),3.83701,P,ugm-3,35.22012,P,ugm-3,41.10345,P,ugm-3,2.146,P,ugm-3 (Ref.eq),0.60,P,ugm-3,0.70,P,ugm-3,0.70,P,ugm-3,0.60,P,ugm-3,,,,0.70,P,ugm-3,0.70,P,ugm-3
01-01-2024,11:00,4.850,P,ugm-3 (FIDAS),8.24122,P,ugm-3,26.76305,P,ugm-3,39.39941,P,ugm-3,2.288,P,ugm-3 (Ref.eq),0.30,P,ugm-3,0.30,P,ugm-3,0.30,P,ugm-3,0.30,P,ugm-3,,,,0.30,P,ugm-3,0.30,P,ugm-3
01-01-2024,12:00,3.250,P,ugm-3 (FIDAS),2.83605,P,ugm-3,9.59358,P,ugm-3,13.94213,P,ugm-3,1.533,P,ugm-3 (Ref.eq),0.20,P,ugm-3,0.20,P,ugm-3,0.20,P,ugm-3,0.20,P,ugm-3,,,,0.20,P,ugm-3,0.20,P,ugm-3
01-01-2024,13:00,3.675,P,ugm-3 (FIDAS),3.83701,P,ugm-3,9.71120,P,ugm-3,15.59453,P,ugm-3,1.722,P,ugm-3 (Ref.eq),0.20,P,ugm-3,0.30,P,ugm-3,0.20,P,ugm-3,0.20,P,ugm-3,,,,0.30,P,ugm-3,0.20,P,ugm-3
01-01-2024,14:00,4.800,P,ugm-3 (FIDAS),2.93614,P,ugm-3,7.32296,P,ugm-3,11.82499,P,ugm-3,2.052,P,ugm-3 (Ref.eq),0.20,P,ugm-3,0.20,P,ugm-3,0.20,P,ugm-3,0.20,P,ugm-3,,,,0.20,P,ugm-3,0.20,P,ugm-3
01-01-2024,15:00,4.625,P,ugm-3 (FIDAS),3.03624,P,ugm-3,13.41762,P,ugm-3,18.07313,P,ugm-3,2.264,P,ugm-3 (Ref.eq),0.30,P,ugm-3,0.40,P,ugm-3,0.30,P,ugm-3,0.30,P,ugm-3,,,,0.30,P,ugm-3,0.30,P,ugm-3
01-01-2024,16:00,5.575,P,ugm-3 (FIDAS),2.73595,P,ugm-3,18.93853,P,ugm-3,23.13360,P,ugm-3,3.113,P,ugm-3 (Ref.eq),0.70,P,ugm-3,0.80,P,ugm-3,0.80,P,ugm-3,0.70,P,ugm-3,,,,0.80,P,ugm-3,0.70,P,ugm-3
01-01-2024,17:00,5.550,P,ugm-3 (FIDAS),1.83509,P,ugm-3,17.16995,P,ugm-3,19.98371,P,ugm-3,3.373,P,ugm-3 (Ref.eq),0.40,P,ugm-3,0.60,P,ugm-3,0.50,P,ugm-3,0.50,P,ugm-3,,,,0.60,P,ugm-3,0.50,P,ugm-3
01-01-2024,18:00,5.325,P,ugm-3 (FIDAS),1.66826,P,ugm-3,14.63732,P,ugm-3,17.19529,P,ugm-3,3.278,P,ugm-3 (Ref.eq),0.40,P,ugm-3,0.60,P,ugm-3,0.50,P,ugm-3,0.50,P,ugm-3,,,,0.60,P,ugm-3,0.50,P,ugm-3
01-01-2024,19:00,5.125,P,ugm-3 (FIDAS),1.56817,P,ugm-3,13.44822,P,ugm-3,15.85271,P,ugm-3,3.325,P,ugm-3 (Ref.eq),0.50,P,ugm-3,0.60,P,ugm-3,0.50,P,ugm-3,0.50,P,ugm-3,,,,0.70,P,ugm-3,0.50,P,ugm-3
01-01-2024,20:00,5.275,P,ugm-3 (FIDAS),2.23547,P,ugm-3,9.37842,P,ugm-3,12.80610,P,ugm-3,2.783,P,ugm-3 (Ref.eq),0.30,P,ugm-3,0.40,P,ugm-3,0.40,P,ugm-3,0.30,P,ugm-3,,,,0.40,P,ugm-3,0.40,P,ugm-3
01-01-2024,21:00,5.100,P,ugm-3 (FIDAS),1.96855,P,ugm-3,7.87711,P,ugm-3,10.89551,P,ugm-3,2.948,P,ugm-3 (Ref.eq),0.30,P,ugm-3,0.40,P,ugm-3,0.40,P,ugm-3,0.30,P,ugm-3,,,,0.40,P,ugm-3,0.40,P,ugm-3
01-01-2024,22:00,14.050,P,ugm-3 (FIDAS),1.96855,P,ugm-3,7.72220,P,ugm-3,10.74060,P,ugm-3,11.179,P,ugm-3 (Ref.eq),1.50,P,ugm-3,1.60,P,ugm-3,1.80,P,ugm-3,1.40,P,ugm-3,,,,1.70,P,ugm-3,1.50,P,ugm-3
01-01-2024,23:00,14.825,P,ugm-3 (FIDAS),1.86846,P,ugm-3,5.55199,P,ugm-3,8.41691,P,ugm-3,11.934,P,ugm-3 (Ref.eq),1.80,P,ugm-3,1.70,P,ugm-3,2.00,P,ugm-3,1.60,P,ugm-3,,,,1.70,P,ugm-3,1.60,P,ugm-3
01-01-2024,24:00,5.500,P,ugm-3 (FIDAS),1.56817,P,ugm-3,2.08797,P,ugm-3,4.49246,P,ugm-3,3.396,P,ugm-3 (Ref.eq),0.20,P,ugm-3,0.30,P,ugm-3,0.20,P,ugm-3,0.20,P,ugm-3,,,,0.30,P,ugm-3,0.20,P,ugm-3
02-01-2024,01:00,4.175,P,ugm-3 (FIDAS),1.51256,P,ugm-3,0.98557,P,ugm-3,3.30480,P,ugm-3,2.783,P,ugm-3 (Ref.eq),0.20,P,ugm-3,0.20,P,ugm-3,0.20,P,ugm-3,0.20,P,ugm-3,,,,0.30,P,ugm-3,0.20,P,ugm-3
02-01-2024,02:00,3.000,P,ugm-3 (FIDAS),1.42359,P,ugm-3,0.84660,P,ugm-3,3.02940,P,ugm-3,2.311,P,ugm-3 (Ref.eq),0.10,P,ugm-3,0.20,P,ugm-3,0.20,P,ugm-3,0.20,P,ugm-3,,,,0.20,P,ugm-3,0.20,P,ugm-3
02-01-2024,03:00,1.975,P,ugm-3 (FIDAS),1.40134,P,ugm-3,0.89792,P,ugm-3,3.04661,P,ugm-3,1.557,P,ugm-3 (Ref.eq),0.10,P,ugm-3,0.10,P,ugm-3,0.10,P,ugm-3,0.10,P,ugm-3,,,,0.20,P,ugm-3,0.10,P,ugm-3
02-01-2024,04:00,1.025,P,ugm-3 (FIDAS),1.43471,P,ugm-3,0.79512,P,ugm-3,2.99498,P,ugm-3,0.755,P,ugm-3 (Ref.eq),0.10,P,ugm-3,0.10,P,ugm-3,0.10,P,ugm-3,0.10,P,ugm-3,,,,0.10,P,ugm-3,0.10,P,ugm-3
02-01-2024,05:00,0.875,P,ugm-3 (FIDAS),1.56817,P,ugm-3,1.57160,P,ugm-3,3.97609,P,ugm-3,0.495,P,ugm-3 (Ref.eq),0.10,P,ugm-3,0.10,P,ugm-3,0.10,P,ugm-3,0.10,P,ugm-3,,,,0.10,P,ugm-3,0.10,P,ugm-3
02-01-2024,06:00,0.700,P,ugm-3 (FIDAS),1.50144,P,ugm-3,1.67392,P,ugm-3,3.97609,P,ugm-3,0.425,P,ugm-3 (Ref.eq),0.10,P,ugm-3,0.10,P,ugm-3,0.10,P,ugm-3,0.10,P,ugm-3,,,,0.10,P,ugm-3,0.10,P,ugm-3
02-01-2024,07:00,1.000,P,ugm-3 (FIDAS),2.23547,P,ugm-3,8.08748,P,ugm-3,11.51516,P,ugm-3,0.613,P,ugm-3 (Ref.eq),0.10,P,ugm-3,0.20,P,ugm-3,0.10,P,ugm-3,0.10,P,ugm-3,,,,0.20,P,ugm-3,0.10,P,ugm-3
02-01-2024,08:00,1.600,P,ugm-3 (FIDAS),1.93519,P,ugm-3,10.51014,P,ugm-3,13.47739,P,ugm-3,0.920,P,ugm-3 (Ref.eq),0.20,P,ugm-3,0.20,P,ugm-3,0.20,P,ugm-3,0.20,P,ugm-3,,,,0.20,P,ugm-3,0.20,P,ugm-3
02-01-2024,09:00,2.300,P,ugm-3 (FIDAS),1.80173,P,ugm-3,10.40496,P,ugm-3,13.16756,P,ugm-3,1.203,P,ugm-3 (Ref.eq),0.20,P,ugm-3,0.20,P,ugm-3,0.20,P,ugm-3,0.20,P,ugm-3,,,,0.20,P,ugm-3,0.20,P,ugm-3
02-01-2024,10:00,3.325,P,ugm-3 (FIDAS),4.90470,P,ugm-3,17.83358,P,ugm-3,25.35401,P,ugm-3,1.722,P,ugm-3 (Ref.eq),0.30,P,ugm-3,0.30,P,ugm-3,0.30,P,ugm-3,0.30,P,ugm-3,,,,0.30,P,ugm-3,0.30,P,ugm-3
02-01-2024,11:00,3.975,P,ugm-3 (FIDAS),4.17066,P,ugm-3,20.50822,P,ugm-3,26.90314,P,ugm-3,2.571,P,ugm-3 (Ref.eq),0.40,P,ugm-3,0.50,P,ugm-3,0.40,P,ugm-3,0.40,P,ugm-3,,,,0.50,P,ugm-3,0.40,P,ugm-3
02-01-2024,12:00,5.725,P,ugm-3 (FIDAS),5.60537,P,ugm-3,23.62703,P,ugm-3,32.22180,P,ugm-3,3.184,P,ugm-3 (Ref.eq),0.50,P,ugm-3,0.60,P,ugm-3,0.50,P,ugm-3,0.50,P,ugm-3,,,,0.60,P,ugm-3,0.50,P,ugm-3
02-01-2024,13:00,5.175,P,ugm-3 (FIDAS),4.27076,P,ugm-3,23.40135,P,ugm-3,29.94975,P,ugm-3,3.066,P,ugm-3 (Ref.eq),0.60,P,ugm-3,0.60,P,ugm-3,0.60,P,ugm-3,0.60,P,ugm-3,,,,0.60,P,ugm-3,0.60,P,ugm-3
02-01-2024,14:00,6.775,P,ugm-3 (FIDAS),9.07536,P,ugm-3,34.77881,P,ugm-3,48.69416,P,ugm-3,4.127,P,ugm-3 (Ref.eq),0.90,P,ugm-3,1.00,P,ugm-3,0.90,P,ugm-3,0.90,P,ugm-3,,,,1.00,P,ugm-3,0.90,P,ugm-3
02-01-2024,15:00,9.050,P,ugm-3 (FIDAS),13.81322,P,ugm-3,44.08982,P,ugm-3,65.26980,P,ugm-3,6.132,P,ugm-3 (Ref.eq),1.00,P,ugm-3,1.20,P,ugm-3,1.00,P,ugm-3,1.00,P,ugm-3,,,,1.20,P,ugm-3,1.10,P,ugm-3
02-01-2024,16:00,11.100,P,ugm-3 (FIDAS),12.74554,P,ugm-3,50.52921,P,ugm-3,70.07209,P,ugm-3,7.665,P,ugm-3 (Ref.eq),1.30,P,ugm-3,1.40,P,ugm-3,1.20,P,ugm-3,1.30,P,ugm-3,,,,1.40,P,ugm-3,1.30,P,ugm-3
02-01-2024,17:00,12.400,P,ugm-3 (FIDAS),34.26614,P,ugm-3,60.85527,P,ugm-3,113.39595,P,ugm-3,8.962,P,ugm-3 (Ref.eq),1.70,P,ugm-3,1.90,P,ugm-3,1.70,P,ugm-3,1.70,P,ugm-3,,,,1.90,P,ugm-3,1.80,P,ugm-3
02-01-2024,18:00,14.025,P,ugm-3 (FIDAS),32.53114,P,ugm-3,58.09362,P,ugm-3,107.97401,P,ugm-3,10.731,P,ugm-3 (Ref.eq),,,,,,,,,,,,,,,,,,,,,
02-01-2024,19:00,13.425,P,ugm-3 (FIDAS),41.43967,P,ugm-3,58.16964,P,ugm-3,121.70959,P,ugm-3,10.613,P,ugm-3 (Ref.eq),2.20,P,ugm-3,2.60,P,ugm-3,2.30,P,ugm-3,2.20,P,ugm-3,,,,2.50,P,ugm-3,2.40,P,ugm-3
02-01-2024,20:00,13.750,P,ugm-3 (FIDAS),54.38540,P,ugm-3,57.21913,P,ugm-3,140.60891,P,ugm-3,11.651,P,ugm-3 (Ref.eq),2.70,P,ugm-3,3.20,P,ugm-3,2.80,P,ugm-3,2.80,P,ugm-3,,,,3.30,P,ugm-3,2.90,P,ugm-3
02-01-2024,21:00,12.050,P,ugm-3 (FIDAS),43.87534,P,ugm-3,56.03577,P,ugm-3,123.31035,P,ugm-3,10.377,P,ugm-3 (Ref.eq),2.30,P,ugm-3,2.80,P,ugm-3,2.50,P,ugm-3,2.40,P,ugm-3,,,,3.00,P,ugm-3,2.50,P,ugm-3
02-01-2024,22:00,11.725,P,ugm-3 (FIDAS),26.45866,P,ugm-3,57.90333,P,ugm-3,98.47271,P,ugm-3,9.929,P,ugm-3 (Ref.eq),1.90,P,ugm-3,2.40,P,ugm-3,2.00,P,ugm-3,2.00,P,ugm-3,,,,2.70,P,ugm-3,2.10,P,ugm-3
02-01-2024,23:00,12.900,P,ugm-3 (FIDAS),34.33287,P,ugm-3,61.21769,P,ugm-3,113.86069,P,ugm-3,10.142,P,ugm-3 (Ref.eq),2.90,P,ugm-3,3.30,P,ugm-3,2.90,P,ugm-3,2.90,P,ugm-3,,,,3.40,P,ugm-3,3.10,P,ugm-3
02-01-2024,24:00,9.775,P,ugm-3 (FIDAS),12.47861,P,ugm-3,56.92843,P,ugm-3,76.06204,P,ugm-3,7.524,P,ugm-3 (Ref.eq),1.80,P,ugm-3,2.10,P,ugm-3,1.80,P,ugm-3,1.80,P,ugm-3,,,,2.10,P,ugm-3,1.90,P,ugm-3
03-01-2024,01:00,8.975,P,ugm-3 (FIDAS),10.81035,P,ugm-3,53.78906,P,ugm-3,70.36470,P,ugm-3,6.840,P,ugm-3 (Ref.eq),1.70,P,ugm-3,2.00,P,ugm-3,1.80,P,ugm-3,1.70,P,ugm-3,,,,2.00,P,ugm-3,1.80,P,ugm-3
03-01-2024,02:00,6.050,P,ugm-3 (FIDAS),3.87037,P,ugm-3,36.27056,P,ugm-3,42.20505,P,ugm-3,4.458,P,ugm-3 (Ref.eq),1.10,P,ugm-3,1.20,P,ugm-3,1.10,P,ugm-3,1.10,P,ugm-3,,,,1.30,P,ugm-3,1.10,P,ugm-3
03-01-2024,03:00,4.250,P,ugm-3 (FIDAS),2.33557,P,ugm-3,24.66456,P,ugm-3,28.24571,P,ugm-3,2.618,P,ugm-3 (Ref.eq),1.10,P,ugm-3,1.20,P,ugm-3,1.10,P,ugm-3,1.10,P,ugm-3,,,,1.20,P,ugm-3,1.10,P,ugm-3
03-01-2024,04:00,3.925,P,ugm-3 (FIDAS),2.76932,P,ugm-3,16.61532,P,ugm-3,20.86155,P,ugm-3,2.382,P,ugm-3 (Ref.eq),0.40,P,ugm-3,0.40,P,ugm-3,0.40,P,ugm-3,0.40,P,ugm-3,,,,0.40,P,ugm-3,0.40,P,ugm-3
03-01-2024,05:00,3.325,P,ugm-3 (FIDAS),3.03624,P,ugm-3,16.36096,P,ugm-3,21.01646,P,ugm-3,2.406,P,ugm-3 (Ref.eq),0.20,P,ugm-3,0.30,P,ugm-3,0.20,P,ugm-3,0.20,P,ugm-3,,,,0.30,P,ugm-3,0.20,P,ugm-3
03-01-2024,06:00,4.350,P,ugm-3 (FIDAS),8.17449,P,ugm-3,21.34015,P,ugm-3,33.87420,P,ugm-3,3.208,P,ugm-3 (Ref.eq),0.30,P,ugm-3,0.30,P,ugm-3,0.30,P,ugm-3,0.30,P,ugm-3,,,,0.30,P,ugm-3,0.30,P,ugm-3
03-01-2024,07:00,4.825,P,ugm-3 (FIDAS),9.24218,P,ugm-3,32.04442,P,ugm-3,46.21556,P,ugm-3,3.726,P,ugm-3 (Ref.eq),0.50,P,ugm-3,0.60,P,ugm-3,0.50,P,ugm-3,0.50,P,ugm-3,,,,0.60,P,ugm-3,0.50,P,ugm-3
03-01-2024,08:00,6.500,P,ugm-3 (FIDAS),7.04007,P,ugm-3,31.80631,P,ugm-3,42.60094,P,ugm-3,4.670,P,ugm-3 (Ref.eq),0.60,P,ugm-3,0.70,P,ugm-3,0.60,P,ugm-3,0.60,P,ugm-3,,,,0.70,P,ugm-3,0.60,P,ugm-3
03-01-2024,09:00,7.475,P,ugm-3 (FIDAS),4.33749,P,ugm-3,24.07359,P,ugm-3,30.72431,P,ugm-3,4.670,P,ugm-3 (Ref.eq),0.50,P,ugm-3,0.50,P,ugm-3,0.50,P,ugm-3,0.50,P,ugm-3,,,,0.50,P,ugm-3,0.50,P,ugm-3
03-01-2024,10:00,7.900,P,ugm-3 (FIDAS),6.17258,P,ugm-3,35.51178,P,ugm-3,44.97626,P,ugm-3,4.717,P,ugm-3 (Ref.eq),0.60,P,ugm-3,0.70,P,ugm-3,0.60,P,ugm-3,0.60,P,ugm-3,,,,0.70,P,ugm-3,0.60,P,ugm-3
03-01-2024,11:00,7.625,P,ugm-3 (FIDAS),8.37468,P,ugm-3,42.04966,P,ugm-3,54.89066,P,ugm-3,4.953,P,ugm-3 (Ref.eq),0.90,P,ugm-3,1.00,P,ugm-3,0.90,P,ugm-3,0.90,P,ugm-3,,,,1.00,P,ugm-3,0.90,P,ugm-3
03-01-2024,12:00,5.475,P,ugm-3 (FIDAS),6.37277,P,ugm-3,25.49697,P,ugm-3,35.26841,P,ugm-3,3.632,P,ugm-3 (Ref.eq),0.50,P,ugm-3,0.60,P,ugm-3,0.50,P,ugm-3,0.50,P,ugm-3,,,,0.60,P,ugm-3,0.60,P,ugm-3
03-01-2024,13:00,5.575,P,ugm-3 (FIDAS),7.00671,P,ugm-3,27.00354,P,ugm-3,37.74701,P,ugm-3,3.750,P,ugm-3 (Ref.eq),0.60,P,ugm-3,0.70,P,ugm-3,0.60,P,ugm-3,0.60,P,ugm-3,,,,0.70,P,ugm-3,0.60,P,ugm-3
03-01-2024,14:00,7.175,P,ugm-3 (FIDAS),5.47191,P,ugm-3,26.87828,P,ugm-3,35.26841,P,ugm-3,5.165,P,ugm-3 (Ref.eq),0.70,P,ugm-3,0.80,P,ugm-3,0.70,P,ugm-3,0.70,P,ugm-3,,,,0.80,P,ugm-3,0.70,P,ugm-3
03-01-2024,15:00,6.050,P,ugm-3 (FIDAS),7.34036,P,ugm-3,35.27033,P,ugm-3,46.52539,P,ugm-3,3.774,P,ugm-3 (Ref.eq),0.80,P,ugm-3,0.90,P,ugm-3,0.80,P,ugm-3,0.80,P,ugm-3,,,,0.90,P,ugm-3,0.80,P,ugm-3
03-01-2024,16:00,6.150,P,ugm-3 (FIDAS),7.27363,P,ugm-3,36.04393,P,ugm-3,47.19668,P,ugm-3,4.080,P,ugm-3 (Ref.eq),0.90,P,ugm-3,1.00,P,ugm-3,0.90,P,ugm-3,0.90,P,ugm-3,,,,1.00,P,ugm-3,0.90,P,ugm-3
03-01-2024,17:00,6.750,P,ugm-3 (FIDAS),6.53959,P,ugm-3,30.71475,P,ugm-3,40.74199,P,ugm-3,3.892,P,ugm-3 (Ref.eq),0.60,P,ugm-3,0.70,P,ugm-3,0.60,P,ugm-3,0.60,P,ugm-3,,,,0.80,P,ugm-3,0.70,P,ugm-3
03-01-2024,18:00,6.525,P,ugm-3 (FIDAS),4.93806,P,ugm-3,28.31648,P,ugm-3,35.88806,P,ugm-3,4.127,P,ugm-3 (Ref.eq),0.60,P,ugm-3,0.70,P,ugm-3,0.60,P,ugm-3,0.60,P,ugm-3,,,,0.80,P,ugm-3,0.70,P,ugm-3
03-01-2024,19:00,7.650,P,ugm-3 (FIDAS),5.23835,P,ugm-3,30.02482,P,ugm-3,38.05684,P,ugm-3,5.047,P,ugm-3 (Ref.eq),0.80,P,ugm-3,0.90,P,ugm-3,0.80,P,ugm-3,0.80,P,ugm-3,,,,1.00,P,ugm-3,0.90,P,ugm-3
03-01-2024,20:00,8.500,P,ugm-3 (FIDAS),3.73691,P,ugm-3,22.36095,P,ugm-3,28.09080,P,ugm-3,5.307,P,ugm-3 (Ref.eq),0.70,P,ugm-3,0.90,P,ugm-3,0.70,P,ugm-3,0.80,P,ugm-3,,,,0.90,P,ugm-3,0.80,P,ugm-3
03-01-2024,21:00,9.000,P,ugm-3 (FIDAS),2.93614,P,ugm-3,16.66935,P,ugm-3,21.17138,P,ugm-3,5.071,P,ugm-3 (Ref.eq),0.50,P,ugm-3,0.60,P,ugm-3,0.50,P,ugm-3,0.50,P,ugm-3,,,,0.60,P,ugm-3,0.50,P,ugm-3
03-01-2024,22:00,9.125,P,ugm-3 (FIDAS),3.00288,P,ugm-3,14.86299,P,ugm-3,19.46734,P,ugm-3,4.741,P,ugm-3 (Ref.eq),0.50,P,ugm-3,0.60,P,ugm-3,0.50,P,ugm-3,0.50,P,ugm-3,,,,0.60,P,ugm-3,0.60,P,ugm-3
03-01-2024,23:00,10.125,P,ugm-3 (FIDAS),2.43567,P,ugm-3,12.47954,P,ugm-3,16.21418,P,ugm-3,5.330,P,ugm-3 (Ref.eq),0.70,P,ugm-3,0.80,P,ugm-3,0.70,P,ugm-3,0.70,P,ugm-3,,,,0.80,P,ugm-3,0.70,P,ugm-3
03-01-2024,24:00,10.200,P,ugm-3 (FIDAS),2.10201,P,ugm-3,10.15107,P,ugm-3,13.37411,P,ugm-3,4.599,P,ugm-3 (Ref.eq),0.40,P,ugm-3,0.50,P,ugm-3,0.40,P,ugm-3,0.40,P,ugm-3,,,,0.50,P,ugm-3,0.40,P,ugm-3
04-01-2024,01:00,8.650,P,ugm-3 (FIDAS),2.71371,P,ugm-3,14.22199,P,ugm-3,18.38295,P,ugm-3,4.316,P,ugm-3 (Ref.eq),0.50,P,ugm-3,0.60,P,ugm-3,0.50,P,ugm-3,0.50,P,ugm-3,,,,0.60,P,ugm-3,0.50,P,ugm-3
04-01-2024,02:00,8.750,P,ugm-3 (FIDAS),1.55705,P,ugm-3,3.80906,P,ugm-3,6.19650,P,ugm-3,4.222,P,ugm-3 (Ref.eq),0.30,P,ugm-3,0.40,P,ugm-3,0.30,P,ugm-3,0.30,P,ugm-3,,,,0.40,P,ugm-3,0.30,P,ugm-3
04-01-2024,03:00,7.475,P,ugm-3 (FIDAS),1.60153,P,ugm-3,3.48266,P,ugm-3,5.93831,P,ugm-3,4.292,P,ugm-3 (Ref.eq),0.30,P,ugm-3,0.40,P,ugm-3,0.30,P,ugm-3,0.30,P,ugm-3,,,,0.40,P,ugm-3,0.30,P,ugm-3
04-01-2024,04:00,7.625,P,ugm-3 (FIDAS),1.46807,P,ugm-3,2.39636,P,ugm-3,4.64738,P,ugm-3,5.000,P,ugm-3 (Ref.eq),0.40,P,ugm-3,0.40,P,ugm-3,0.40,P,ugm-3,0.40,P,ugm-3,,,,0.50,P,ugm-3,0.40,P,ugm-3
04-01-2024,05:00,5.725,P,ugm-3 (FIDAS),1.83509,P,ugm-3,3.02127,P,ugm-3,5.83504,P,ugm-3,4.458,P,ugm-3 (Ref.eq),0.30,P,ugm-3,0.40,P,ugm-3,0.30,P,ugm-3,0.30,P,ugm-3,,,,0.40,P,ugm-3,0.30,P,ugm-3
04-01-2024,06:00,5.950,P,ugm-3 (FIDAS),2.23547,P,ugm-3,6.74491,P,ugm-3,10.17259,P,ugm-3,4.646,P,ugm-3 (Ref.eq),0.30,P,ugm-3,0.40,P,ugm-3,0.30,P,ugm-3,0.30,P,ugm-3,,,,0.40,P,ugm-3,0.30,P,ugm-3
04-01-2024,07:00,5.900,P,ugm-3 (FIDAS),2.63586,P,ugm-3,10.10708,P,ugm-3,14.14868,P,ugm-3,4.434,P,ugm-3 (Ref.eq),0.30,P,ugm-3,0.30,P,ugm-3,0.30,P,ugm-3,0.30,P,ugm-3,,,,0.40,P,ugm-3,0.30,P,ugm-3
04-01-2024,08:00,6.250,P,ugm-3 (FIDAS),3.57008,P,ugm-3,15.49077,P,ugm-3,20.96483,P,ugm-3,4.104,P,ugm-3 (Ref.eq),0.50,P,ugm-3,0.50,P,ugm-3,0.50,P,ugm-3,0.50,P,ugm-3,,,,0.50,P,ugm-3,0.50,P,ugm-3
04-01-2024,09:00,6.025,P,ugm-3 (FIDAS),3.73691,P,ugm-3,17.30048,P,ugm-3,23.03033,P,ugm-3,3.656,P,ugm-3 (Ref.eq),0.30,P,ugm-3,0.40,P,ugm-3,0.30,P,ugm-3,0.30,P,ugm-3,,,,0.40,P,ugm-3,0.30,P,ugm-3
04-01-2024,10:00,5.900,P,ugm-3 (FIDAS),3.30316,P,ugm-3,18.94666,P,ugm-3,24.01144,P,ugm-3,3.774,P,ugm-3 (Ref.eq),0.40,P,ugm-3,0.50,P,ugm-3,0.40,P,ugm-3,0.40,P,ugm-3,,,,0.50,P,ugm-3,0.50,P,ugm-3
04-01-2024,11:00,4.800,P,ugm-3 (FIDAS),4.53768,P,ugm-3,19.32581,P,ugm-3,26.28349,P,ugm-3,3.208,P,ugm-3 (Ref.eq),0.40,P,ugm-3,0.50,P,ugm-3,0.40,P,ugm-3,0.40,P,ugm-3,,,,0.50,P,ugm-3,0.40,P,ugm-3
04-01-2024,12:00,4.475,P,ugm-3 (FIDAS),4.77123,P,ugm-3,19.17425,P,ugm-3,26.49004,P,ugm-3,2.901,P,ugm-3 (Ref.eq),0.40,P,ugm-3,0.40,P,ugm-3,0.40,P,ugm-3,0.40,P,ugm-3,,,,0.40,P,ugm-3,0.40,P,ugm-3
04-01-2024,13:00,4.500,P,ugm-3 (FIDAS),6.00575,P,ugm-3,19.24358,P,ugm-3,28.45226,P,ugm-3,2.995,P,ugm-3 (Ref.eq),0.50,P,ugm-3,0.70,P,ugm-3,0.60,P,ugm-3,0.60,P,ugm-3,,,,0.70,P,ugm-3,0.60,P,ugm-3
04-01-2024,14:00,5.925,P,ugm-3 (FIDAS),5.37181,P,ugm-3,18.56320,P,ugm-3,26.79986,P,ugm-3,3.491,P,ugm-3 (Ref.eq),0.40,P,ugm-3,0.50,P,ugm-3,0.40,P,ugm-3,0.40,P,ugm-3,,,,0.50,P,ugm-3,0.40,P,ugm-3
04-01-2024,15:00,6.825,P,ugm-3 (FIDAS),6.63969,P,ugm-3,25.29425,P,ugm-3,35.47496,P,ugm-3,4.198,P,ugm-3 (Ref.eq),0.50,P,ugm-3,0.60,P,ugm-3,0.50,P,ugm-3,0.50,P,ugm-3,,,,0.60,P,ugm-3,0.60,P,ugm-3
04-01-2024,16:00,6.450,P,ugm-3 (FIDAS),5.60537,P,ugm-3,26.41545,P,ugm-3,35.01023,P,ugm-3,3.868,P,ugm-3 (Ref.eq),0.50,P,ugm-3,0.60,P,ugm-3,0.50,P,ugm-3,0.50,P,ugm-3,,,,0.70,P,ugm-3,0.50,P,ugm-3
04-01-2024,17:00,3.975,P,ugm-3 (FIDAS),5.73883,P,ugm-3,34.47281,P,ugm-3,43.27223,P,ugm-3,2.524,P,ugm-3 (Ref.eq),0.70,P,ugm-3,0.80,P,ugm-3,0.80,P,ugm-3,0.70,P,ugm-3,,,,0.80,P,ugm-3,0.80,P,ugm-3
04-01-2024,18:00,4.700,P,ugm-3 (FIDAS),5.47191,P,ugm-3,36.99923,P,ugm-3,45.38936,P,ugm-3,2.995,P,ugm-3 (Ref.eq),0.90,P,ugm-3,1.10,P,ugm-3,1.00,P,ugm-3,0.90,P,ugm-3,,,,1.10,P,ugm-3,1.00,P,ugm-3
04-01-2024,19:00,6.275,P,ugm-3 (FIDAS),5.53864,P,ugm-3,29.56438,P,ugm-3,38.05684,P,ugm-3,4.575,P,ugm-3 (Ref.eq),0.70,P,ugm-3,0.90,P,ugm-3,0.70,P,ugm-3,0.70,P,ugm-3,,,,0.90,P,ugm-3,0.80,P,ugm-3
04-01-2024,20:00,7.750,P,ugm-3 (FIDAS),7.00671,P,ugm-3,33.09677,P,ugm-3,43.84024,P,ugm-3,5.967,P,ugm-3 (Ref.eq),1.00,P,ugm-3,1.20,P,ugm-3,1.10,P,ugm-3,1.10,P,ugm-3,,,,1.30,P,ugm-3,1.10,P,ugm-3
04-01-2024,21:00,7.625,P,ugm-3 (FIDAS),7.40709,P,ugm-3,27.83548,P,ugm-3,39.19286,P,ugm-3,5.967,P,ugm-3 (Ref.eq),0.80,P,ugm-3,1.00,P,ugm-3,0.90,P,ugm-3,0.90,P,ugm-3,,,,1.20,P,ugm-3,0.90,P,ugm-3
04-01-2024,22:00,5.100,P,ugm-3 (FIDAS),2.10201,P,ugm-3,21.92442,P,ugm-3,25.14746,P,ugm-3,4.104,P,ugm-3 (Ref.eq),0.70,P,ugm-3,0.80,P,ugm-3,0.70,P,ugm-3,0.70,P,ugm-3,,,,0.90,P,ugm-3,0.70,P,ugm-3
04-01-2024,23:00,5.075,P,ugm-3 (FIDAS),3.50335,P,ugm-3,30.77452,P,ugm-3,36.14625,P,ugm-3,4.127,P,ugm-3 (Ref.eq),0.80,P,ugm-3,1.00,P,ugm-3,0.80,P,ugm-3,0.80,P,ugm-3,,,,1.10,P,ugm-3,0.90,P,ugm-3
04-01-2024,24:00,5.975,P,ugm-3 (FIDAS),3.57008,P,ugm-3,33.87372,P,ugm-3,39.34778,P,ugm-3,4.717,P,ugm-3 (Ref.eq),1.10,P,ugm-3,1.30,P,ugm-3,1.10,P,ugm-3,1.10,P,ugm-3,,,,1.40,P,ugm-3,1.20,P,ugm-3
05-01-2024,01:00,5.750,P,ugm-3 (FIDAS),3.11409,P,ugm-3,29.03047,P,ugm-3,33.80535,P,ugm-3,4.410,P,ugm-3 (Ref.eq),0.90,P,ugm-3,1.10,P,ugm-3,0.90,P,ugm-3,0.90,P,ugm-3,,,,1.20,P,ugm-3,1.00,P,ugm-3
05-01-2024,02:00,5.700,P,ugm-3 (FIDAS),2.66922,P,ugm-3,21.51945,P,ugm-3,25.61220,P,ugm-3,3.915,P,ugm-3 (Ref.eq),0.60,P,ugm-3,0.70,P,ugm-3,0.60,P,ugm-3,0.60,P,ugm-3,,,,0.80,P,ugm-3,0.60,P,ugm-3
05-01-2024,03:00,5.900,P,ugm-3 (FIDAS),2.66922,P,ugm-3,23.17185,P,ugm-3,27.26460,P,ugm-3,4.080,P,ugm-3 (Ref.eq),0.60,P,ugm-3,0.70,P,ugm-3,0.60,P,ugm-3,0.60,P,ugm-3,,,,0.80,P,ugm-3,0.70,P,ugm-3
05-01-2024,04:00,5.775,P,ugm-3 (FIDAS),2.36894,P,ugm-3,18.77836,P,ugm-3,22.41068,P,ugm-3,3.868,P,ugm-3 (Ref.eq),0.50,P,ugm-3,0.60,P,ugm-3,0.50,P,ugm-3,0.50,P,ugm-3,,,,0.70,P,ugm-3,0.60,P,ugm-3
05-01-2024,05:00,5.775,P,ugm-3 (FIDAS),3.43662,P,ugm-3,17.50272,P,ugm-3,22.77214,P,ugm-3,3.939,P,ugm-3 (Ref.eq),0.50,P,ugm-3,0.60,P,ugm-3,0.50,P,ugm-3,0.50,P,ugm-3,,,,0.60,P,ugm-3,0.50,P,ugm-3
05-01-2024,06:00,5.725,P,ugm-3 (FIDAS),4.50431,P,ugm-3,21.80393,P,ugm-3,28.71045,P,ugm-3,3.821,P,ugm-3 (Ref.eq),0.50,P,ugm-3,0.50,P,ugm-3,0.50,P,ugm-3,0.50,P,ugm-3,,,,0.60,P,ugm-3,0.50,P,ugm-3
05-01-2024,07:00,6.950,P,ugm-3 (FIDAS),19.35186,P,ugm-3,32.39584,P,ugm-3,62.06828,P,ugm-3,4.198,P,ugm-3 (Ref.eq),0.90,P,ugm-3,1.00,P,ugm-3,0.90,P,ugm-3,0.90,P,ugm-3,,,,1.00,P,ugm-3,0.90,P,ugm-3
05-01-2024,08:00,6.150,P,ugm-3 (FIDAS),23.72271,P,ugm-3,35.55672,P,ugm-3,71.93104,P,ugm-3,3.915,P,ugm-3 (Ref.eq),0.90,P,ugm-3,1.00,P,ugm-3,0.90,P,ugm-3,0.90,P,ugm-3,,,,1.00,P,ugm-3,0.90,P,ugm-3
05-01-2024,09:00,6.050,P,ugm-3 (FIDAS),32.46441,P,ugm-3,43.22107,P,ugm-3,92.99914,P,ugm-3,3.703,P,ugm-3 (Ref.eq),1.10,P,ugm-3,1.30,P,ugm-3,1.20,P,ugm-3,1.10,P,ugm-3,,,,1.20,P,ugm-3,1.20,P,ugm-3
05-01-2024,10:00,7.475,P,ugm-3 (FIDAS),47.07840,P,ugm-3,48.43932,P,ugm-3,120.62520,P,ugm-3,4.717,P,ugm-3 (Ref.eq),1.40,P,ugm-3,1.60,P,ugm-3,1.50,P,ugm-3,1.40,P,ugm-3,,,,1.50,P,ugm-3,1.50,P,ugm-3
05-01-2024,11:00,7.275,P,ugm-3 (FIDAS),47.04504,P,ugm-3,51.64037,P,ugm-3,123.77509,P,ugm-3,4.505,P,ugm-3 (Ref.eq),1.50,P,ugm-3,1.80,P,ugm-3,1.60,P,ugm-3,1.50,P,ugm-3,,,,1.70,P,ugm-3,1.60,P,ugm-3
05-01-2024,12:00,8.750,P,ugm-3 (FIDAS),44.24236,P,ugm-3,56.14431,P,ugm-3,123.98164,P,ugm-3,5.142,P,ugm-3 (Ref.eq),1.70,P,ugm-3,1.90,P,ugm-3,1.80,P,ugm-3,1.70,P,ugm-3,,,,1.90,P,ugm-3,1.80,P,ugm-3
05-01-2024,13:00,8.625,P,ugm-3 (FIDAS),22.98867,P,ugm-3,47.00973,P,ugm-3,82.25854,P,ugm-3,4.481,P,ugm-3 (Ref.eq),1.00,P,ugm-3,1.20,P,ugm-3,1.00,P,ugm-3,1.00,P,ugm-3,,,,1.10,P,ugm-3,1.10,P,ugm-3
05-01-2024,14:00,7.700,P,ugm-3 (FIDAS),20.05253,P,ugm-3,47.07093,P,ugm-3,77.81771,P,ugm-3,3.915,P,ugm-3 (Ref.eq),0.70,P,ugm-3,0.80,P,ugm-3,0.70,P,ugm-3,0.70,P,ugm-3,,,,0.80,P,ugm-3,0.70,P,ugm-3
05-01-2024,15:00,7.375,P,ugm-3 (FIDAS),22.35473,P,ugm-3,52.11276,P,ugm-3,86.38954,P,ugm-3,3.797,P,ugm-3 (Ref.eq),0.60,P,ugm-3,0.70,P,ugm-3,0.70,P,ugm-3,0.60,P,ugm-3,,,,0.70,P,ugm-3,0.70,P,ugm-3
05-01-2024,16:00,7.625,P,ugm-3 (FIDAS),15.18120,P,ugm-3,53.55908,P,ugm-3,76.83660,P,ugm-3,4.080,P,ugm-3 (Ref.eq),0.90,P,ugm-3,1.00,P,ugm-3,0.90,P,ugm-3,0.90,P,ugm-3,,,,0.90,P,ugm-3,0.90,P,ugm-3
05-01-2024,17:00,9.925,P,ugm-3 (FIDAS),17.88379,P,ugm-3,57.47063,P,ugm-3,84.89205,P,ugm-3,5.094,P,ugm-3 (Ref.eq),1.60,P,ugm-3,1.80,P,ugm-3,1.70,P,ugm-3,1.60,P,ugm-3,,,,1.80,P,ugm-3,1.70,P,ugm-3
05-01-2024,18:00,10.950,P,ugm-3 (FIDAS),20.41955,P,ugm-3,65.40750,P,ugm-3,96.71704,P,ugm-3,6.769,P,ugm-3 (Ref.eq),1.40,P,ugm-3,1.60,P,ugm-3,1.50,P,ugm-3,1.40,P,ugm-3,,,,1.70,P,ugm-3,1.50,P,ugm-3
05-01-2024,19:00,14.275,P,ugm-3 (FIDAS),22.22127,P,ugm-3,60.78594,P,ugm-3,94.85809,P,ugm-3,9.788,P,ugm-3 (Ref.eq),1.90,P,ugm-3,2.20,P,ugm-3,2.00,P,ugm-3,1.90,P,ugm-3,,,,2.30,P,ugm-3,2.00,P,ugm-3
05-01-2024,20:00,14.125,P,ugm-3 (FIDAS),9.20882,P,ugm-3,49.96215,P,ugm-3,64.08214,P,ugm-3,9.741,P,ugm-3 (Ref.eq),1.40,P,ugm-3,1.70,P,ugm-3,1.40,P,ugm-3,1.40,P,ugm-3,,,,1.80,P,ugm-3,1.50,P,ugm-3
05-01-2024,21:00,14.350,P,ugm-3 (FIDAS),10.47670,P,ugm-3,51.21962,P,ugm-3,67.28366,P,ugm-3,10.377,P,ugm-3 (Ref.eq),1.50,P,ugm-3,1.70,P,ugm-3,1.50,P,ugm-3,1.50,P,ugm-3,,,,1.80,P,ugm-3,1.60,P,ugm-3
05-01-2024,22:00,14.350,P,ugm-3 (FIDAS),11.51102,P,ugm-3,52.62865,P,ugm-3,70.27864,P,ugm-3,10.283,P,ugm-3 (Ref.eq),1.50,P,ugm-3,1.70,P,ugm-3,1.50,P,ugm-3,1.50,P,ugm-3,,,,1.70,P,ugm-3,1.50,P,ugm-3
05-01-2024,23:00,10.850,P,ugm-3 (FIDAS),13.81322,P,ugm-3,46.25859,P,ugm-3,67.43858,P,ugm-3,7.406,P,ugm-3 (Ref.eq),1.30,P,ugm-3,1.50,P,ugm-3,1.40,P,ugm-3,1.30,P,ugm-3,,,,1.50,P,ugm-3,1.40,P,ugm-3
05-01-2024,24:00,8.075,P,ugm-3 (FIDAS),19.01821,P,ugm-3,43.38984,P,ugm-3,72.55069,P,ugm-3,5.047,P,ugm-3 (Ref.eq),1.40,P,ugm-3,1.70,P,ugm-3,1.60,P,ugm-3,1.40,P,ugm-3,,,,1.70,P,ugm-3,1.50,P,ugm-3